Regional Weather Roundup
Issued by NWS

Home | Current Version | Previous Version | Graphics & Text | Print | Product List | Glossary On
Versions: 1 2 3 4 5 6 7 8 9 10 11 12 13 14 15 16 17 18 19 20 21 22 23 24 25 26 27 28 29 30 31 32 33 34 35 36 37 38 39 40 41 42 43 44 45 46 47 48 49 50
000
ASUS43 KDTX 170301
RWRMI
MICHIGAN HOURLY REGIONAL WEATHER ROUNDUP
NATIONAL WEATHER SERVICE DETROIT/PONTIAC MI
1100 PM EDT TUE SEP 16 2014

NOTE: "FAIR" INDICATES FEW OR NO CLOUDS BELOW 12,000 FEET WITH NO
SIGNIFICANT WEATHER AND/OR OBSTRUCTION TO VISIBILITY.

MIZ047>049-052>055-059>063-066>070-074>076-081>083-170400-
SOUTHEAST LOWER MICHIGAN

CITY           SKY/WX    TMP DP  RH WIND       PRES   REMARKS
ADRIAN         CLEAR     53  46  77 NW7       30.10R
ALMA           CLEAR     46  43  87 W3        30.09S
ANN ARBOR      PTCLDY    54  44  69 NW7       30.09S
BAD AXE        CLEAR     42  42 100 CALM      30.07S
CARO           CLEAR     45  44  98 CALM      30.07S
DETROIT CITY   PTCLDY    56  46  69 CALM      30.07F
DETROIT        PTCLDY    53  46  77 W6        30.08F
FLINT          CLEAR     52  42  69 W6        30.08F
GROSSE ILE     CLEAR     54  48  82 CALM      30.06F
HILLSDALE      CLEAR     46  45  97 CALM      30.10F
HOWELL         CLEAR     49  44  82 CALM      30.08F

CITY           SKY/WX    TMP DP  RH WIND       PRES   REMARKS
JACKSON        CLEAR     48  44  86 CALM      30.10S
LAMBERTVILLE   CLEAR     48  46  93 CALM      30.09S
LANSING        CLEAR     46  42  86 CALM      30.10S
LAPEER         FAIR      51  46  83 SW3       30.08S
MASON          CLEAR     47  44  88 CALM      30.09F
MONROE         CLEAR     48  46  93 CALM      30.07S
MT. CLEMENS    PTCLDY    53  47  81 W2        30.06S
PONTIAC        CLEAR     53  45  74 W6        30.08S
PORT HOPE        N/A     50  44  80 SW5       30.04S
PORT HURON     CLEAR     46  46 100 CALM      30.08S FOG
TRI CITIES     CLEAR     49  43  80 W7        30.08F
TROY           CLEAR     58  44  61 NW7       30.10R
SAGINAW HB     CLEAR     52  43  71 W7        30.07S
$$
MIZ043>046-050>051-056>058-064>065-071>073-077>080-170400-
SOUTHWEST LOWER MICHIGAN

CITY           SKY/WX    TMP DP  RH WIND       PRES   REMARKS
BATTLE CREEK   CLEAR     49  43  80 CALM      30.10F
BENTON HARBOR  CLEAR     45  44  97 CALM      30.10F
BIG RAPIDS     CLEAR     43  43 100 CALM      30.08S
COLDWATER      CLEAR     47  46  95 CALM      30.11S
FREMONT        FAIR      42  41  95 CALM      30.08F
HOLLAND        CLEAR     46  42  86 CALM      30.11S
GRAND RAPIDS   CLEAR     49  43  80 W5        30.10F
IONIA          FAIR      48  42  81 W5        30.09S
KALAMAZOO      CLEAR     47  43  86 CALM      30.11S
LUDINGTON      CLEAR     44  43  95 CALM      30.07F
MARSHALL       CLEAR     44  42  93 CALM      30.09F
MOUNT PLEASANT CLEAR     46  43  91 W3        30.07F
MUSKEGON       CLEAR     46  41  82 CALM      30.10S
SOUTH HAVEN    CLEAR     45  44  97 CALM      30.10S
$$
MIZ016>042-170400-
NORTHERN LOWER MICHIGAN

CITY           SKY/WX    TMP DP  RH WIND       PRES   REMARKS
ALPENA         CLEAR     50  42  74 SW7       30.01F
BEAVER ISLAND  PTCLDY    59  53  80 W8        30.00S
BELLAIRE       MOCLDY    53  43  69 S5        30.03F
CADILLAC       CLEAR     43  41  92 S3        30.06S
CHARLEVOIX     CLOUDY    56  48  74 SW8       30.03F
FRANKFORT      CLEAR     58  49  73 SW6       30.05S
GAYLORD        MOCLDY    49  40  71 W8        30.03F
GRAYLING       CLEAR     49  40  70 SW3       30.05F
HARBOR SPRINGS MOCLDY    56  45  65 SW5       30.01S
HOUGHTON LAKE  CLEAR     52  41  66 W9        30.06S
MANISTEE       CLEAR     46  41  81 CALM      30.07S
OSCODA         CLEAR     47  44  89 SW8       30.03S
PELLSTON       MOCLDY    56  45  66 W6        30.01S
ROGERS CITY    CLOUDY    53  44  71 SW12      30.00F
TRAVERSE CITY  PTCLDY    53  42  66 SW7       30.03S
$$
MIZ007>008-015-170400-
EASTERN UPPER MICHIGAN

CITY           SKY/WX    TMP DP  RH WIND       PRES   REMARKS
KINROSS        PTCLDY    52  46  82 NW7       29.99S
MACKINAC ISLAN CLOUDY    58  52  78 W8        29.99S
NEWBERRY       PTCLDY    46  43  89 S3        29.99F
S. S. MARIE    MOCLDY    51  44  77 W6        29.98F
$$
MIZ004>006-011>014-085-170400-
CENTRAL UPPER MICHIGAN

CITY           SKY/WX    TMP DP  RH WIND       PRES   REMARKS
MANISTIQUE     CLOUDY    53  46  77 CALM      30.00S
ESCANABA       PTCLDY    52  45  76 CALM      30.00S
MENOMINEE      CLEAR     54  45  71 W5        30.01S
SAWYER-GWINN   CLOUDY    52  44  76 NE3       30.01R
$$
MIZ001>003-009>011-084-170400-
WESTERN UPPER MICHIGAN

CITY           SKY/WX    TMP DP  RH WIND       PRES   REMARKS
IRON MOUNTAIN  CLEAR     50  42  74 CALM      29.99F
HOUGHTON       CLOUDY    50  44  80 E7        29.99R
COPPER HARBOR    N/A     47  43  86 SE7       30.02R
IRONWOOD       PTCLDY    55  45  67 SW8       29.97F
$$

ABBREVIATIONS USED IN REMARKS
   TC - TEMPERATURE IN CELSIUS
  WCI - WIND CHILL INDEX
   HX - HEAT INDEX
  VSB - VISIBILITY



USA.gov is the U.S. government's official web portal to all federal, state and local government web resources and services.